Location: Auckland
(36.8670°S, 174.7670°E)
Time: 15:46:39
(UTC+13:00)

USA 32 - Pass Details

Date: 24 January 2019
Orbit: 776 x 784 km, 85.0° (Epoch: 17 February)

Event Time Altitude Azimuth Distance (km) Brightness Sun altitude
Rises 21:29:58 0° 353° (N) 3,247 7.0 -9.9°
Reaches altitude 10° 21:32:18 10° 352° (N) 2,328 6.3 -10.3°
Maximum altitude 21:37:32 75° 266° (W) 816 4.3 -11.1°
Drops below altitude 10° 21:42:50 10° 180° (S) 2,363 7.0 -12.0°
Sets 21:45:14 0° 177° (S) 3,300 7.8 -12.4°
